Weather History for KBKB - January, 2013

Change the Weather History Date:

Friday, January 18, 2013

  Actual Average (KPOE) Record (KPOE)
Temperature  
Mean Temperature 46 °F -  
Max Temperature 60 °F 58 °F 77 °F (2000)
Min Temperature 32 °F 38 °F 23 °F (1997)
Degree Days  
Heating Degree Days 19    
Moisture  
Dew Point 30 °F    
Average Humidity 67    
Maximum Humidity 92    
Minimum Humidity 22    
Precipitation  
Precipitation 0.00 in - - ()
Sea Level Pressure  
Sea Level Pressure 30.53 in    
Wind  
Wind Speed 1 mph (ENE)    
Max Wind Speed 6 mph    
Max Gust Speed -    
Visibility 10 miles    
Events      
Averages and records for this station are not official NWS values.
T = Trace of Precipitation, MM = Missing Value Source: NWS Daily Summary

Daily Weather History Graph

Daily Weather History Graph

Search for Another Location

Airport or City:

Trip Planner

Search our weather history database for the weather conditions in past years. The results will help you decide how hot, cold, wet, or windy it might be!

Date:

Astronomy

Jan. 18, 2013 Rise Set
Actual Time 7:09 AM CST 5:34 PM CST
Civil Twilight 6:43 AM CST 6:00 PM CST
Nautical Twilight 6:14 AM CST 6:30 PM CST
Astronomical Twilight 5:45 AM CST 6:59 PM CST
Moon 11:21 AM CST (1/18) No Moon Set
Length of Visible Light 11h 17m
Length of Day
10h 25m
Waxing Crescent, 47% of the Moon is Illuminated
Jan 18
Waxing Crescent
Jan 18
First Quarter
Jan 26
Full
Feb 3
Last Quarter
Feb 10
New

Hourly Weather History & Observations

Time (CST) Temp. Windchill Dew Point Humidity Pressure Visibility Wind Dir Wind Speed Gust Speed Precip Events Conditions
12:54 AM 34.0 °F - 30.9 °F 89% 30.56 in 10.0 mi Calm Calm - N/A   Clear
1:54 AM 34.0 °F - 30.9 °F 89% 30.56 in 10.0 mi Calm Calm - N/A   Clear
2:54 AM 33.1 °F - 30.9 °F 92% 30.56 in 10.0 mi Calm Calm - N/A   Clear
3:54 AM 33.1 °F - 30.0 °F 89% 30.56 in 10.0 mi Calm Calm - N/A   Clear
4:54 AM 32.0 °F - 30.0 °F 92% 30.56 in 10.0 mi Calm Calm - N/A   Clear
5:54 AM 36.0 °F - 33.1 °F 89% 30.57 in 10.0 mi Calm Calm - N/A   Clear
6:54 AM 35.1 °F - 32.0 °F 89% 30.58 in 10.0 mi Calm Calm - N/A   Clear
7:54 AM 36.0 °F - 33.1 °F 89% 30.59 in 10.0 mi Calm Calm - N/A   Clear
8:54 AM 42.1 °F - 34.0 °F 73% 30.61 in 10.0 mi Calm Calm - N/A   Clear
9:54 AM 45.0 °F 41.8 °F 34.0 °F 65% 30.63 in 10.0 mi East 5.8 mph - N/A   Clear
10:54 AM 50.0 °F - 34.0 °F 54% 30.61 in 10.0 mi Variable 3.5 mph - N/A   Clear
11:54 AM 54.0 °F - 30.9 °F 41% 30.57 in 10.0 mi NNE 4.6 mph - N/A   Clear
12:54 PM 57.9 °F - 28.9 °F 33% 30.53 in 10.0 mi East 3.5 mph - N/A   Clear
1:54 PM 59.0 °F - 21.0 °F 23% 30.50 in 10.0 mi Calm Calm - N/A   Clear
2:54 PM 60.1 °F - 21.9 °F 23% 30.48 in 10.0 mi Variable 3.5 mph - N/A   Clear
3:54 PM 60.1 °F - 21.0 °F 22% 30.47 in 10.0 mi Calm Calm - N/A   Clear
4:54 PM 55.9 °F - 26.1 °F 32% 30.47 in 10.0 mi Calm Calm - N/A   Clear
5:54 PM 46.9 °F - 30.9 °F 54% 30.47 in 10.0 mi Calm Calm - N/A   Clear
6:54 PM 41.0 °F - 30.0 °F 65% 30.48 in 10.0 mi Calm Calm - N/A   Clear
7:54 PM 37.9 °F - 30.0 °F 73% 30.48 in 10.0 mi Calm Calm - N/A   Clear
8:54 PM 36.0 °F - 30.0 °F 79% 30.48 in 10.0 mi Calm Calm - N/A   Clear
9:54 PM 34.0 °F - 28.9 °F 82% 30.47 in 10.0 mi Calm Calm - N/A   Clear
10:54 PM 33.1 °F - 28.0 °F 82% 30.46 in 10.0 mi Calm Calm - N/A   Clear
11:54 PM 32.0 °F - 28.9 °F 88% 30.45 in 10.0 mi Calm Calm - N/A   Clear